This demonstration page uses our WeatherBlox Daily Observations layout. Learn more.

Left ArrowRight Arrow

38.88101, -77.10428

Hourly Observations for May 7, 2016

Temp ( °F °C ) Dew Point ( °F °C ) Humidity (%) Winds ( mph kmh ) Pressure ( in mb ) Visibility ( mi km ) Precip ( " mm )
12:52 am 00:52 Cloudy 53 11.7 50 10 89 89 WNW 7 11 29.72 1006 10 16 0.00 0.03
1:10 am 01:10 Cloudy 52 11 50 10 94 94 NW 8 13 29.71 1006 10 16 0.00 0.00
1:23 am 01:23 Cloudy 52 11.1 50 10 93 93 NW 9 15 29.71 1006 10 16 0.00 0.00
1:36 am 01:36 Cloudy 53 11.7 50 10 89 89 NW 8 13 29.71 1006 10 16 0.00 0.00
1:52 am 01:52 Cloudy with Light Rain 53 11.7 50 10 89 89 NNW 7 11 29.72 1006 10 16 0.00 0.03
2:23 am 02:23 Cloudy with Light Rain 53 11.7 50 10 89 89 WNW 7 11 29.71 1006 10 16 0.00 0.03
2:31 am 02:31 Cloudy with Light Rain 53 11.7 50 10 89 89 WNW 7 11 29.71 1006 10 16 0.00 0.03
2:38 am 02:38 Cloudy with Light Rain 52 11 50 10 94 94 WNW 7 11 29.71 1006 8 13 0.00 0.00
2:45 am 02:45 Cloudy with Light Rain 52 11.1 50 10 93 93 NNW 8 13 29.71 1006 4 6 0.00 0.03
2:52 am 02:52 Cloudy with Light Rain 52 11.1 51 10.6 97 97 NE 6 9 29.72 1006 3 4 0.02 0.51
2:59 am 02:59 Cloudy with Light Rain 52 11 50 10 94 94 NE 10 17 29.71 1006 3 4 0.00 0.00
3:26 am 03:26 Cloudy with Light Rain 52 11 50 10 94 94 NNE 12 19 29.71 1006 4 6 0.00 0.00
3:36 am 03:36 Cloudy with Light Rain 52 11 50 10 94 94 NE 10 17 29.71 1006 7 11 0.00 0.00
3:52 am 03:52 Cloudy with Light Rain 51 10.6 49 9.4 92 92 NNE 7 11 29.73 1007 10 16 0.12 3.05
4:06 am 04:06 Cloudy 52 11 48 9 88 88 NNE 9 15 29.74 1007 10 16 0.00 0.00
4:45 am 04:45 Cloudy with Light Rain 52 11.1 49 9.4 89 89 N 7 11 29.74 1007 10 16 0.00 0.03
4:52 am 04:52 Cloudy with Light Rain 52 11.1 50 10 93 93 N 7 11 29.75 1007 10 16 0.00 0.03
5:37 am 05:37 Cloudy 51 10.6 49 9.4 92 92 N 10 17 29.74 1007 10 16 0.00 0.03
5:44 am 05:44 Cloudy 52 11 48 9 88 88 N 8 13 29.77 1008 10 16 0.00 0.00
5:52 am 05:52 Cloudy 51 10.6 49 9.4 92 92 NNW 9 15 29.76 1008 10 16 0.00 0.03
6:12 am 06:12 Mostly Cloudy 52 11 48 9 88 88 NNW 9 15 29.77 1008 10 16 0.00 0.00
6:32 am 06:32 Partly Cloudy 52 11 48 9 88 88 NW 7 11 29.77 1008 10 16 0.00 0.00
6:52 am 06:52 Partly Cloudy 51 10.6 49 9.4 92 92 NW 8 13 29.77 1008 10 16 0.00 0.00
7:52 am 07:52 Mostly Cloudy 53 11.7 49 9.4 86 86 N 7 11 29.78 1009 10 16 0.00 0.00
8:17 am 08:17 Mostly Cloudy 53 11.7 48 8.9 83 83 NNW 7 11 29.80 1009 10 16 0.00 0.00
8:20 am 08:20 Mostly Cloudy 54 12 48 9 82 82 NNW 7 11 29.80 1009 10 16 0.00 0.00
8:24 am 08:24 Mostly Cloudy 54 12 48 9 82 82 NNW 6 9 29.80 1009 10 16 0.00 0.00
8:40 am 08:40 Mostly Cloudy 54 12 48 9 82 82 NNW 8 13 29.80 1009 10 16 0.00 0.00
8:52 am 08:52 Mostly Cloudy 54 12.2 48 8.9 80 80 NW 7 11 29.80 1009 10 16 0.00 0.00
9:00 am 09:00 Mostly Cloudy 54 12 48 9 82 82 NNW 6 9 29.80 1009 10 16 0.00 0.00
9:52 am 09:52 Mostly Cloudy 54 12.2 48 8.9 80 80 N 6 9 29.80 1009 10 16 0.00 0.00
10:04 am 10:04 Mostly Cloudy 55 13 48 9 77 77 N 3 6 29.80 1009 10 16 0.00 0.00
10:52 am 10:52 Mostly Cloudy 57 13.9 48 8.9 72 72 VRB 3 6 29.80 1009 10 16 0.00 0.00
11:52 am 11:52 Mostly Cloudy 59 15 48 8.9 67 67 NNE 5 7 29.80 1009 10 16 0.00 0.00
12:52 pm 12:52 Mostly Cloudy 59 15 48 8.9 67 67 ENE 6 9 29.78 1009 10 16 0.00 0.00
1:52 pm 13:52 Mostly Cloudy 63 17.2 49 9.4 60 60 NNE 7 11 29.77 1008 10 16 0.00 0.00
2:52 pm 14:52 Mostly Cloudy 61 16.1 49 9.4 65 65 SE 6 9 29.76 1008 10 16 0.00 0.00
3:25 pm 15:25 Mostly Cloudy 63 17.2 48 8.9 58 58 VRB 3 6 29.74 1007 10 16 0.00 0.00
3:52 pm 15:52 Mostly Cloudy 64 17.8 48 8.9 56 56 SSE 6 9 29.74 1007 10 16 0.00 0.00
4:52 pm 16:52 Mostly Cloudy 63 17.2 49 9.4 60 60 S 6 9 29.74 1007 10 16 0.00 0.00
5:17 pm 17:17 Mostly Cloudy 62 16.7 49 9.4 62 62 SSE 8 13 29.74 1007 10 16 0.00 0.00
5:52 pm 17:52 Partly Cloudy 64 17.8 50 10 60 60 SSE 5 7 29.73 1007 10 16 0.00 0.00
6:52 pm 18:52 Partly Cloudy 62 16.7 51 10.6 67 67 S 9 15 29.73 1007 10 16 0.00 0.00
7:52 pm 19:52 Partly Cloudy 60 15.6 50 10 70 70 S 7 11 29.74 1007 10 16 0.00 0.00
8:52 pm 20:52 Mostly Cloudy 60 15.6 50 10 70 70 SSE 5 7 29.74 1007 10 16 0.00 0.00
9:11 pm 21:11 Cloudy 59 15 50 10 72 72 SSE 3 6 29.74 1007 10 16 0.00 0.00
9:52 pm 21:52 Cloudy 59 15 51 10.6 75 75 S 7 11 29.74 1007 10 16 0.00 0.00
10:52 pm 22:52 Cloudy 58 14.4 51 10.6 78 78 S 10 17 29.75 1008 10 16 0.00 0.03
11:52 pm 23:52 Cloudy 58 14.4 50 10 75 75 S 7 11 29.75 1007 10 16 0.00 0.03

Powered by AerisWeather